This demonstration page uses our WeatherBlox Daily Observations layout. Learn more.

Left ArrowRight Arrow

53.62937, 11.41316

Hourly Observations for July 11, 2016

Temp ( °F °C ) Dew Point ( °F °C ) Humidity (%) Winds ( mph kmh ) Pressure ( in mb ) Visibility ( mi km ) Precip ( " mm )
6:20 am 06:20 Mostly Sunny 64 18 63 17 94 94 SSW 2 4 29.71 1006 7 11 N/A
6:50 am 06:50 Mostly Sunny 66 19 63 17 88 88 VRB 2 4 29.71 1006 7 11 N/A
7:20 am 07:20 Mostly Sunny 68 20 63 17 83 83 SSW 5 7 29.71 1006 7 11 N/A
7:50 am 07:50 Mostly Sunny 70 21 61 16 73 73 SW 12 19 29.71 1006 7 11 N/A
8:20 am 08:20 Mostly Sunny 70 21 61 16 73 73 SW 12 19 29.71 1006 7 11 N/A
8:50 am 08:50 Mostly Sunny 72 22 63 17 73 73 SW 13 20 29.71 1006 7 11 N/A
9:20 am 09:20 Mostly Sunny 72 22 61 16 69 69 WSW 14 22 29.74 1007 7 11 N/A
9:50 am 09:50 Mostly Sunny 72 22 61 16 69 69 WSW 14 22 29.74 1007 7 11 N/A
10:20 am 10:20 Mostly Cloudy 73 23 59 15 61 61 WSW 15 24 29.74 1007 30 48 N/A
10:50 am 10:50 Mostly Cloudy 73 23 59 15 61 61 SW 14 22 29.74 1007 30 48 N/A
11:20 am 11:20 Mostly Sunny 73 23 57 14 57 57 WSW 17 28 29.74 1007 7 11 N/A
11:50 am 11:50 Mostly Sunny 73 23 57 14 57 57 SW 22 35 29.74 1007 7 11 N/A
12:20 pm 12:20 Mostly Sunny 73 23 57 14 57 57 WSW 17 28 29.74 1007 7 11 N/A
12:50 pm 12:50 Mostly Cloudy 73 23 57 14 57 57 WSW 16 26 29.74 1007 30 48 N/A
1:20 pm 13:20 Mostly Cloudy 75 24 57 14 54 54 SW 18 30 29.74 1007 30 48 N/A
1:50 pm 13:50 Mostly Cloudy 75 24 57 14 54 54 WSW 21 33 29.74 1007 30 48 N/A
2:20 pm 14:20 Mostly Sunny 75 24 57 14 54 54 WSW 22 35 29.74 1007 7 11 N/A
2:23 pm 14:23 Mostly Cloudy 77 25 57 14 51 51 WSW 20 31 29.74 1007 30 48 N/A
2:50 pm 14:50 Mostly Cloudy 79 26 55 13 45 45 WSW 22 35 29.74 1007 30 48 N/A
3:20 pm 15:20 Mostly Sunny 79 26 57 14 48 48 WSW 20 31 29.74 1007 7 11 N/A
3:50 pm 15:50 Mostly Sunny 75 24 55 13 50 50 W 18 30 29.77 1008 7 11 N/A
3:54 pm 15:54 Mostly Sunny 77 25 57 14 51 51 WSW 16 26 29.77 1008 7 11 N/A
4:20 pm 16:20 Mostly Sunny 77 25 55 13 47 47 W 17 28 29.77 1008 7 11 N/A
4:34 pm 16:34 Mostly Sunny 77 25 54 12 44 44 W 18 30 29.77 1008 7 11 N/A
4:50 pm 16:50 Mostly Sunny 77 25 52 11 42 42 W 18 30 29.77 1008 7 11 N/A
5:20 pm 17:20 Mostly Sunny 77 25 52 11 42 42 W 18 30 29.77 1008 7 11 N/A
5:50 pm 17:50 Mostly Sunny 75 24 50 10 41 41 W 16 26 29.77 1008 7 11 N/A
6:20 pm 18:20 Mostly Sunny 75 24 52 11 44 44 WSW 15 24 29.77 1008 7 11 N/A
6:50 pm 18:50 Mostly Sunny 75 24 52 11 44 44 W 16 26 29.77 1008 7 11 N/A

Powered by AerisWeather